Torna al catalogo

STARLINK-11119

AttivoComunicazioniVLEO
NORAD 60121·PAYLOAD·🇺🇸 United States

Lanciato Jun 24, 2024 da Vandenberg Space Force Base

Loading…

Prossimi Passaggi (prossime 24 ore)

TLE

AggiornatoSource: CelesTrak SupGP

Epoca: Sep 14, 2026, 20:39 UTC

1 60121C 24118J   26257.86090278  .00043861  00000+0  36113-3 0  2573
2 60121  53.1568   8.4629 0001053  86.7843  79.0268 15.69698559    10

Traccia STARLINK-11119 in tempo reale con AllMySat

Download on the App Store